| time (UTC) | temp F | wind direction | speed MPH | gust MPH | rain 1hr in | rain 24hr in | rain mn in | humidity % | barometer mb |
| 20260506090007 | 52 | 88 | 0.0 | 0.0 | 0.00 | 0.01 | 0.00 | 11 | 1015.7 |
| 20260506084509 | 52 | 88 | 0.0 | 0.0 | 0.00 | 0.01 | 0.00 | 13 | 1015.7 |
| 20260506083007 | 52 | 88 | 0.0 | 0.0 | 0.00 | 0.01 | 0.00 | 14 | 1015.8 |
| 20260506081503 | 52 | 88 | 0.0 | 0.0 | 0.00 | 0.01 | 0.00 | 16 | 1015.7 |
| 20260506073056 | 52 | 88 | 0.0 | 0.0 | 0.00 | 0.01 | 0.00 | 28 | 1015.3 |
| 20260506071555 | 52 | 88 | 0.0 | 0.0 | 0.00 | 0.01 | 0.00 | 30 | 1015.2 |
| 20260506061541 | 53 | 88 | 0.0 | 0.0 | 0.00 | 0.01 | 0.01 | 29 | 1014.9 |
| 20260506044516 | 52 | 88 | 0.0 | 0.0 | 0.00 | 0.01 | 0.01 | 35 | 1014.3 |
| 20260506043009 | 53 | 88 | 0.0 | 0.0 | 0.00 | 0.01 | 0.01 | 36 | 1014.0 |
| 20260506041505 | 52 | 88 | 0.0 | 0.0 | 0.00 | 0.01 | 0.01 | 38 | 1013.9 |
| 20260506040100 | 53 | 88 | 0.0 | 0.0 | 0.00 | 0.01 | 0.01 | 39 | 1013.7 |
| 20260506034557 | 53 | 88 | 0.0 | 0.0 | 0.00 | 0.01 | 0.01 | 40 | 1013.5 |
| 20260506033053 | 53 | 88 | 0.0 | 0.0 | 0.00 | 0.01 | 0.01 | 42 | 1013.4 |
| 20260506031548 | 54 | 88 | 0.0 | 0.0 | 0.00 | 0.01 | 0.01 | 45 | 1013.2 |
| 20260506030044 | 54 | 88 | 0.0 | 0.0 | 0.00 | 0.01 | 0.01 | 51 | 1013.0 |
| 20260506024539 | 55 | 88 | 0.0 | 0.0 | 0.00 | 0.01 | 0.01 | 53 | 1013.0 |
| 20260506023048 | 55 | 88 | 0.0 | 0.0 | 0.00 | 0.01 | 0.01 | 56 | 1012.8 |
| 20260506021534 | 55 | 88 | 0.0 | 0.0 | 0.00 | 0.01 | 0.01 | 58 | 1012.8 |
| 20260506020031 | 56 | 88 | 0.0 | 0.0 | 0.00 | 0.01 | 0.01 | 60 | 1012.8 |
| 20260506014521 | 56 | 88 | 0.0 | 0.0 | 0.00 | 0.01 | 0.01 | 62 | 1012.7 |
| 20260506013018 | 57 | 88 | 0.0 | 0.0 | 0.00 | 0.01 | 0.01 | 63 | 1012.7 |
| 20260506011512 | 57 | 88 | 0.0 | 0.0 | 0.00 | 0.01 | 0.01 | 64 | 1012.6 |
| 20260506010018 | 58 | 88 | 0.0 | 0.0 | 0.00 | 0.01 | 0.01 | 64 | 1012.6 |
| 20260506004505 | 59 | 88 | 0.0 | 0.0 | 0.00 | 0.01 | 0.01 | 66 | 1012.6 |
| 20260506003100 | 59 | 88 | 0.0 | 0.0 | 0.00 | 0.01 | 0.01 | 67 | 1012.5 |
| 20260506001559 | 60 | 88 | 0.0 | 0.0 | 0.00 | 0.01 | 0.01 | 65 | 1012.4 |
| 20260506000051 | 60 | 88 | 0.0 | 0.0 | 0.00 | 0.01 | 0.01 | 66 | 1012.3 |
| 20260505234604 | 60 | 88 | 0.0 | 0.0 | 0.00 | 0.01 | 0.01 | 65 | 1012.4 |
| 20260505233043 | 60 | 88 | 0.0 | 0.0 | 0.00 | 0.01 | 0.01 | 65 | 1012.4 |
| 20260505231539 | 60 | 88 | 0.0 | 0.0 | 0.01 | 0.01 | 0.01 | 66 | 1012.4 |
| 20260505230034 | 60 | 88 | 0.0 | 0.0 | 0.01 | 0.01 | 0.01 | 65 | 1012.5 |
| 20260505224534 | 60 | 88 | 0.0 | 0.0 | 0.01 | 0.01 | 0.01 | 63 | 1012.5 |
| 20260505223025 | 61 | 88 | 0.0 | 0.0 | 0.01 | 0.01 | 0.01 | 65 | 1012.5 |
| 20260505221523 | 62 | 88 | 0.0 | 0.0 | 0.00 | 0.00 | 0.00 | 65 | 1012.6 |
| 20260505220117 | 63 | 88 | 0.0 | 0.0 | 0.00 | 0.00 | 0.00 | 65 | 1012.7 |
| 20260505214515 | 63 | 88 | 0.0 | 0.0 | 0.00 | 0.00 | 0.00 | 64 | 1012.8 |
| 20260505213008 | 63 | 88 | 0.0 | 0.0 | 0.00 | 0.00 | 0.00 | 63 | 1012.8 |
| 20260505211504 | 61 | 88 | 0.0 | 0.0 | 0.00 | 0.00 | 0.00 | 60 | 1013.0 |
| 20260505210103 | 59 | 88 | 0.0 | 0.0 | 0.00 | 0.00 | 0.00 | 51 | 1013.1 |
| 20260505204604 | 59 | 88 | 0.0 | 0.0 | 0.00 | 0.00 | 0.00 | 57 | 1013.1 |
| 20260505203055 | 59 | 88 | 0.0 | 0.0 | 0.00 | 0.00 | 0.00 | 48 | 1013.0 |
| 20260505201550 | 58 | 88 | 0.0 | 0.0 | 0.00 | 0.00 | 0.00 | 51 | 1013.0 |
| 20260505200059 | 57 | 88 | 0.0 | 0.0 | 0.00 | 0.00 | 0.00 | 43 | 1013.1 |
| 20260505194545 | 58 | 88 | 0.0 | 0.0 | 0.00 | 0.00 | 0.00 | 58 | 1013.2 |
| 20260505193035 | 60 | 88 | 0.0 | 0.0 | 0.00 | 0.00 | 0.00 | 57 | 1013.1 |
| 20260505191529 | 59 | 88 | 0.0 | 0.0 | 0.00 | 0.00 | 0.00 | 60 | 1013.2 |
| 20260505190027 | 58 | 88 | 0.0 | 0.0 | 0.00 | 0.00 | 0.00 | 44 | 1013.2 |
| 20260505184523 | 57 | 88 | 0.0 | 0.0 | 0.00 | 0.00 | 0.00 | 46 | 1013.1 |
| 20260505183019 | 56 | 88 | 0.0 | 0.0 | 0.00 | 0.00 | 0.00 | 27 | 1013.2 |
| 20260505181512 | 55 | 88 | 0.0 | 0.0 | 0.00 | 0.00 | 0.00 | 41 | 1013.2 |
| 20260505180009 | 55 | 88 | 0.0 | 0.0 | 0.00 | 0.00 | 0.00 | 22 | 1013.0 |
| 20260505174504 | 54 | 88 | 0.0 | 0.0 | 0.00 | 0.00 | 0.00 | 23 | 1012.8 |
| 20260505173059 | 54 | 88 | 0.0 | 0.0 | 0.00 | 0.00 | 0.00 | 10 | 1012.8 |
| 20260505171554 | 54 | 88 | 0.0 | 0.0 | 0.00 | 0.00 | 0.00 | 1 | 1012.6 |
| 20260505170050 | 54 | 88 | 0.0 | 0.0 | 0.00 | 0.00 | 0.00 | 1 | 1012.7 |
| 20260505164549 | 53 | 88 | 0.0 | 0.0 | 0.00 | 0.00 | 0.00 | 1 | 1012.6 |
| 20260505163041 | 53 | 88 | 0.0 | 0.0 | 0.00 | 0.00 | 0.00 | 1 | 1012.5 |
| 20260505161538 | 52 | 88 | 0.0 | 0.0 | 0.00 | 0.00 | 0.00 | 1 | 1012.4 |
| 20260505153028 | 51 | 88 | 0.0 | 0.0 | 0.00 | 0.00 | 0.00 | 1 | 1012.3 |
| 20260505151519 | 50 | 88 | 0.0 | 0.0 | 0.00 | 0.00 | 0.00 | 1 | 1012.1 |
| 20260505140110 | 48 | 88 | 0.0 | 0.0 | 0.00 | 0.00 | 0.00 | 1 | 1011.6 |
| 20260505124538 | 49 | 88 | 0.0 | 0.0 | 0.00 | 0.00 | 0.00 | 1 | 1011.2 |
| 20260505123033 | 49 | 88 | 0.0 | 0.0 | 0.00 | 0.00 | 0.00 | 1 | 1011.3 |
| 20260505121528 | 49 | 88 | 0.0 | 0.0 | 0.00 | 0.00 | 0.00 | 1 | 1011.4 |
| 20260505120028 | 49 | 88 | 0.0 | 0.0 | 0.00 | 0.00 | 0.00 | 1 | 1011.3 |
| 20260505114520 | 49 | 88 | 0.0 | 0.0 | 0.00 | 0.00 | 0.00 | 1 | 1011.3 |
| 20260505113019 | 49 | 88 | 0.0 | 0.0 | 0.00 | 0.00 | 0.00 | 1 | 1011.4 |
| 20260505111511 | 49 | 88 | 0.0 | 0.0 | 0.00 | 0.00 | 0.00 | 1 | 1011.4 |
| 20260505101554 | 49 | 88 | 0.0 | 0.0 | 0.00 | 0.00 | 0.00 | 1 | 1011.2 |
| 20260505100052 | 49 | 88 | 0.0 | 0.0 | 0.00 | 0.00 | 0.00 | 1 | 1010.9 |
| 20260505094545 | 49 | 88 | 0.0 | 0.0 | 0.00 | 0.00 | 0.00 | 1 | 1011.0 |
| 20260505093042 | 49 | 88 | 0.0 | 0.0 | 0.00 | 0.00 | 0.00 | 1 | 1011.1 |
| 20260505091543 | 49 | 88 | 0.0 | 0.0 | 0.00 | 0.00 | 0.00 | 1 | 1011.8 |